Regional Weather Roundup
Issued by NWS

Home | Current Version | Previous Version | Text Only | Print | Product List | Glossary On
Versions: 1 2 3 4 5 6 7 8 9 10 11 12 13 14 15 16 17 18 19 20 21 22 23 24 25 26 27 28 29 30 31 32 33 34 35 36 37 38 39 40 41 42 43 44 45 46 47 48 49 50
000
ASUS43 KTOP 210908
RWRKS

WEATHER ROUNDUP FOR KANSAS
NATIONAL WEATHER SERVICE GOODLAND KS
300 AM CST SUN JAN 21 2018

NOTE:  "FAIR" INDICATES FEW OR NO CLOUDS BELOW 12,000 FEET WITH NO
SIGNIFICANT WEATHER AND/OR OBSTRUCTIONS TO VISIBILITY.

KSZ001>006-013>018-027>032-041>047-211000-
NORTHWEST KANSAS

CITY           SKY/WX    TMP DP  RH WIND       PRES   REMARKS
GOODLAND       CLOUDY    30  27  88 N13       29.77S WCI  20
HAYS           LGT RAIN  35  34  96 N9        29.69S VSB 1/2
HILL CITY      CLOUDY    36  35  96 N13       29.74R FOG     WCI  27
RUSSELL        FOG       35  35 100 NE9       29.67S VSB 1/4
$$

KSZ061>065-074>080-084>089-211000-
SOUTHWEST KANSAS

CITY           SKY/WX    TMP DP  RH WIND       PRES   REMARKS
DODGE CITY     CLOUDY    26  19  74 NW9       29.65S
ELKHART        CLEAR     34  25  69 NW12G17   29.71R WCI  25
GARDEN CITY    CLOUDY    31  30  96 N22G28    29.68S FOG     WCI  18
GREAT BEND     CLOUDY    27  25  93 CALM      29.66F FOG
LIBERAL        CLOUDY    34  19  55 NW14      29.69R WCI  24
PRATT          CLOUDY    39  32  76 S6        29.66F
$$

KSZ066>073-081>083-090>101-211000-
SOUTHEAST KANSAS

CITY           SKY/WX    TMP DP  RH WIND       PRES   REMARKS
CHANUTE        CLOUDY    57  52  83 S17       29.80F
COFFEYVILLE    MOCLDY    57  52  83 S18G26    29.81R
HUTCHINSON     CLOUDY    39  38  96 SE6       29.68F
MEDICINE LODGE   N/A     54  35  48 E8        29.67S
NEWTON         CLOUDY    41  41 100 SE13      29.70F FOG
PARSONS        CLOUDY    57  53  86 S13G21    29.81S
WICHITA INTL   PTCLDY    48  47  96 S12       29.69F
WICHITA JABRA  CLOUDY    48  48 100 S12       29.70F
WICHITA MCCONL CLOUDY    50  49  94 S15       29.70F
WINFIELD       CLOUDY    52  52 100 S18       29.74S
$$

KSZ007>012-019>026-033>040-048>060-102>105-211000-
NORTHEAST KANSAS

CITY           SKY/WX    TMP DP  RH WIND       PRES   REMARKS
CONCORDIA      FOG       36  36 100 E6        29.73S VSB 1/4
EMPORIA        CLOUDY    52  50  93 S21G29    29.73F
LAWRENCE       CLOUDY    42  42 100 SE8       29.80S FOG
MANHATTAN      CLOUDY    40  39  97 N6        29.74F FOG
MARYSVILLE     FOG       39  39 100 E5        29.76S VSB 1/2
OLATHE IND     CLOUDY    49  48  97 S7        29.82R
OLATHE EXE     CLOUDY    50  49  96 S9        29.82R
SALINA         CLOUDY    33  32  96 CALM      29.70F FOG
TOPEKA BILLARD CLOUDY    48  48 100 S7        29.78S
TOPEKA FORBES  CLOUDY    47  46  97 SE7       29.77F FOG
$$




USA.gov is the U.S. government's official web portal to all federal, state and local government web resources and services.